Tracking 20232 objects as of 18-Jan-2020
HD Live streaming from Space Station
objects crossing your sky now

COSMOS 2253

Track COSMOS 2253 now!
10-day predictions
COSMOS 2253 is classified as:


NORAD ID: 22688
Int'l Code: 1993-038B
Perigee: 1,415.7 km
Apogee: 1,431.9 km
Inclination: 82.6 °
Period: 114.1 minutes
Semi major axis: 7794 km
RCS: 1.0582 m2 (large)
Launch date: June 24, 1993
Source: Commonwealth of Independent States (former USSR) (CIS)
Launch site: PLESETSK MISSILE AND SPACE COMPLEX (PKMTR)
aabbcc
Your satellite tracking list
Your tracking list is empty




NASA's NSSDC Master Catalog

Two Line Element Set (TLE):
1 22688U 93038B   20017.80635161  .00000018  00000-0  41946-4 0  9996
2 22688  82.5888 308.1620 0010381 272.2035  87.7867 12.61525670223400
Source of the keplerian elements: AFSPC